Погода в Подберезье

Россия / Новгородская область     58°42′03″N   31°24′04″E
темп.,
°C
ветер,
м/с
пор.,
м/с
влажн.,
%
обл.,
%
осадки,
мм/ч
давл.,
гПа
погр.,
м
17 августа, ср
ср1700:00+20юв311665 0.0 1019216
03:00+18ююв28725 0.0 1019162
06:00+17юв27775 0.0 1019137
09:00+23ююв365674 0.0 1019351
12:00+28ююв254057 0.0 10191332
15:00+30ююв35335 0.0 10182270
18:00+28юв254393 0.0 1017221
21:00+22вюв256163 0.0 101771
18 августа, чт
чт1800:00+20юв266581 0.0 1018123
03:00+19юв276899 0.0 1018142
06:00+18юв2672100 0.0 1019131
09:00+22ююв3758100 0.0 1019287
12:00+27юв3541100 0.0 1020806
15:00+29юв33345 0.0 10191771
18:00+28юв23435 0.0 1019150
21:00+21вюв22585 0.0 102027
19 августа, пт
пт1900:00+19юв23655 0.0 102159
03:00+17вюв25678 0.0 102287
06:00+16вюв26754 0.0 1023112
09:00+22юв37572 0.0 1023391
12:00+28юв45390 0.0 10231327
15:00+29юв46300 0.0 10232284
18:00+27ююв574248 0.0 10231194
21:00+21вюв3106440 0.0 1024244
20 августа, сб
сб2000:00+18вюв3117187 0.0 1024265
03:00+18юв3871100 0.0 1024244
06:00+17вюв2773100 0.0 1024204
09:00+20ю4762100 0.0 1025568
12:00+17вюв3974100 0.3 1024415
15:00+18в2956100 0.3 1023267
18:00+20вюв3105285 0.0 1022308
21:00+21вюв41251100 0.0 1021470
21 августа, вс
вс2100:00+18юв3106719 0.0 1021330
03:00+16юв310765 0.0 1021275
06:00+16юв411765 0.0 1019299
09:00+21юв495423 0.0 1019502
12:00+26ююв58365 0.0 10171177
15:00+28ю57330 0.0 10161526
18:00+27ю37400 0.0 1015819
21:00+21юв366135 0.0 101688